Home > Weather > Eisenhüttenstadt > Past weeks

Flag for Germany Past Weather in Eisenhüttenstadt, Brandenburg, Germany — Yesterday and Last 2 Weeks

Now
72 °F

Scattered clouds.


Feels Like: 76 °F
Forecast: 54 / 76 °F
Wind: 3 mph from East

Location: Zielona Gora Airport

Current Time: Jun 28, 2016 at 8:53:15 PM

Latest Report: Jun 28, 2016 at 8:00 PM


Visibility: N/A

Pressure: 30.01 "Hg

Humidity: 57%

Dew Point: 55 °F

Location of EisenhüttenstadtLocation

Past Weather in Eisenhüttenstadt — Graph

°F

Eisenhüttenstadt Temperature Yesterday

Maximum temperature yesterday: 77 °F (at 4:00 PM)
Minimum temperature yesterday: 54 °F (at 5:30 AM)
Average temperature yesterday: 68 °F

High & Low Weather Summary for the Past Weeks

 TemperatureHumidityPressure
High95 °F (Jun 25, 1:00 PM)100% (Jun 13, 10:00 PM)30.27 "Hg (Jun 13, 10:00 PM)
Low50 °F (Jun 16, 5:30 AM)32% (Jun 24, 1:00 PM)29.42 "Hg (Jun 17, 8:00 AM)
Average70 °F70%29.93 "Hg
* Reported Jun 13 7:00 PM — Jun 28 7:30 PM, Eisenhüttenstadt, Weather by CustomWeather, © 2016

Note: Actual official high and low records may vary slightly from our data, if they occured in-between our weather recording intervals... More about our weather records

Advertising

Eisenhüttenstadt Weather History for the Previous 24 Hours

Scroll right to see more
 ConditionsComfort  
Time TempWeatherWind HumidityBarometerVisibility
7:30 PM
Tue, Jun 28
73 °FSunny.3 mph50%30.01 "Hg10 mi
7:00 PM72 °FPassing clouds.3 mph57%30.01 "HgN/A
6:30 PM72 °FScattered clouds.6 mph57%30.01 "HgN/A
6:00 PM70 °FScattered clouds.5 mph60%30.01 "HgN/A
5:30 PM72 °FScattered clouds.8 mph61%30.01 "HgN/A
5:00 PM70 °FScattered clouds.7 mph69%30.01 "HgN/A
4:30 PM72 °FScattered clouds.5 mph69%30.01 "HgN/A
4:00 PM72 °FScattered clouds.9 mph69%30.01 "HgN/A
3:30 PM68 °FPassing clouds.10 mph73%30.01 "HgN/A
3:00 PM70 °FSprinkles. Scattered clouds.14 mph78%30.01 "HgN/A
2:30 PM73 °FThundershowers. Passing clouds.9 mph53%30.01 "HgN/A
2:00 PM72 °FThunderstorms. Scattered clouds.12 mph65%30.01 "HgN/A
1:30 PM72 °FPartly sunny.10 mph65%30.01 "HgN/A
1:00 PM73 °FPartly sunny.10 mph57%30.04 "HgN/A
12:30 PM72 °FScattered clouds.10 mph61%30.04 "HgN/A
12:00 PM72 °FPartly sunny.12 mph61%30.04 "HgN/A
11:30 AM72 °FScattered clouds.9 mph57%30.04 "HgN/A
11:00 AM73 °FScattered clouds.9 mph53%30.04 "HgN/A
10:30 AM72 °FPassing clouds.10 mph57%30.04 "HgN/A
10:00 AM72 °FPassing clouds.9 mph57%30.04 "HgN/A
9:30 AM70 °FPassing clouds.6 mph60%30.04 "HgN/A
9:00 AM66 °FPassing clouds.7 mph68%30.04 "HgN/A
8:30 AM66 °FSunny.9 mph68%30.04 "Hg10 mi
8:00 AM64 °FSunny.14 mph73%30.04 "Hg10 mi
7:30 AM63 °FSunny.9 mph83%30.04 "Hg10 mi
7:00 AM61 °FSunny.8 mph83%30.04 "Hg10 mi
6:30 AM59 °FPassing clouds.3 mph88%30.04 "HgN/A
6:00 AM57 °FSunny.2 mph88%30.04 "Hg10 mi
5:30 AM54 °FClear.2 mph100%30.04 "Hg10 mi
10:00 PM
Mon, Jun 27
63 °FSunny.2 mph77%30.04 "Hg10 mi
9:30 PM64 °FSunny.2 mph73%30.04 "Hg10 mi
9:00 PM68 °FSunny.1 mph60%30.04 "Hg10 mi
8:30 PM70 °FSunny.1 mph53%30.04 "Hg10 mi
8:00 PM70 °FSunny.6 mph57%30.04 "Hg10 mi
Weather by CustomWeather, © 2016

See weather overviewHow to use our weather pages